COSMOS 1694

Satellite information

Favourite Embed

Satellite Type and Status

PAYLOADIN ORBIT

Key statistics

Satellite COSMOS 1694 at a glance.

Uptime

14675

Days in orbit

Revolutions

≈ 12.6

Per day

Orbit

LEO

Low Earth Orbit

Inclination

82.6

Latest

Satellite identification and parameters

Extended collection of information and parameters for COSMOS 1694.

Object identification

Identified? True

Debris? False

Object name: COSMOS 1694

International designator: 1985-094E

Object number (NORAD): 16142

Object ID (CCSDS): 16142

Country: COMMONWEALTH OF INDEPENDENT STATES (CIS)

Current information (Y/N): Y

RCS size: MEDIUM

Orbital parameters

Period: 113.953 minutes

Inclination: 82.6101 deg

SMA: 7785.913 km

Apoapsis: 1417.356 km

Periapsis: 1398.201 km

RAAN: 21.5792 deg

Eccentricy: 0.0012301

Argument of periapsis: 130.226 deg

Mean anomaly: 346.2911 deg

Mean motion: 12.6368378 rev/day

Mean motion (dot): 0.00000001 rev/day2

B* drag term: -0.000055517 1/REarth

Two-line elements (TLE)

Creation date: Dec. 12, 2025, 7:16 a.m.

Reference frame: TEME

Reference center: EARTH

Epoch: Dec. 11, 2025, 9:26 p.m. UTC

TLE line 0: 0 COSMOS 1694

TLE line 1: 1 16142U 85094E 25345.89317428 .00000001 00000-0 -55517-4 0 9990

TLE line 2: 2 16142 82.6101 21.5792 0012301 130.2260 346.2911 12.63683780853007

Live tracking on map

Real-time ground track for satellite COSMOS 1694.

In-orbit conjunctions

A list of the most updated potential collisions computed for object COSMOS 1694.

Target Orbit TCA Probability of collision Miss distance Type
SL-8 DEB MEO 2025-01-08 01:46:11 0.0001047183 296.0 (m) DEBRIS

Associated space launch

Second generation store-dump military communications satellite

COSMOS 1694 was lifted into orbit during the mission ‘Tsiklon-3 | Strela-3 7 to 12’, on board a Tsiklon-3 space rocket.

The launch took place on Oct. 9, 1985, 9:35 p.m. from 32/1.

For more information about the launch, click the button.

Launch to space Tsiklon-3 | Strela-3 7 to 12
Tsiklon-3 | Strela-3 7 to 12

Agency: N/A

Status: Launch Successful

Launch date: Oct. 9, 1985, 9:35 p.m. UTC

Rocket: Tsiklon-3

Launch pad: 32/1

Location: Plesetsk Cosmodrome, Russian Federation

...

Latest news about this satellite

There are no fresh news available about this satellite. Check back as we update our databases every day.


Newsletter sign-up

Weekly statistics, charts and insights to help you stay on top of the space industry.